Location: Ringwold
(51.1667°N, 1.3667°E)
Time: 08:43:49
(UTC+00:00)

Daily predictions for brighter satellites

Satellite Brightness Start Highest point End
(mag) Time Altitude Azimuth Time Altitude Azimuth Time Altitude Azimuth
Cosmos 1943 Rocket 3.6 19:04:57 10° NW 19:10:07 41° WSW 19:15:17 10° S
STARLINK-1202 3.9 19:06:17 10° W 19:10:26 67° N 19:14:34 10° E
Meteor 1-21 Rocket 4.4 19:06:10 10° NNW 19:11:44 79° W 19:17:16 10° S
NOSS 3-4 (A) 3.9 19:04:53 10° NW 19:11:45 81° NE 19:19:21 10° SE
NOSS 3-4 (C) 3.9 19:04:59 10° NW 19:11:51 80° NE 19:19:28 10° SE
Cosmos 1758 4.2 19:11:24 10° SSW 19:15:26 56° WNW 19:19:29 10° N
SL-4 R/B 2.3 19:15:48 10° SW 19:18:54 33° SSE 19:22:02 10° E
Cosmos 2369 Rocket 3.3 19:14:21 10° NW 19:19:46 45° WSW 19:25:06 10° S
STARLINK-1246 3.9 19:16:17 10° W 19:20:26 68° N 19:24:35 10° E
STARLINK-1203 3.9 19:16:55 10° WNW 19:21:07 70° N 19:25:19 10° E
STARLINK-1201 3.0 19:18:59 10° WNW 19:22:15 78° NNE 19:25:27 11° E
NOSS 3-3 (A) 4.0 19:16:48 10° SW 19:22:45 83° SE 19:29:34 10° NE
NOSS 3-3 (C) 4.0 19:16:53 10° SW 19:22:51 83° SE 19:29:40 10° NE
MOS 1 4.3 19:17:59 10° SSE 19:23:39 87° ENE 19:29:21 10° NNW
Cosmos 1340 Rocket 3.8 19:20:50 10° SSE 19:24:15 26° E 19:27:38 10° NE
CZ-2C R/B 4.4 19:20:07 10° NNE 19:24:28 35° E 19:28:42 10° SSE
Cosmos 1703 3.3 19:20:35 10° N 19:24:32 65° ENE 19:28:28 10° SSE
STARLINK-67 2.6 19:22:20 10° WNW 19:24:53 59° SSW 19:27:10 12° SE
Cosmos 1328 3.8 19:21:11 10° N 19:25:10 63° ENE 19:29:09 10° SSE
STARLINK-1224 3.8 19:21:15 10° WNW 19:25:24 69° N 19:29:33 10° E
H-2A R/B 2.2 19:22:10 10° SSE 19:27:23 80° WSW 19:32:28 10° NNW
CZ-2C R/B 3.0 19:25:15 10° SSE 19:30:07 82° WSW 19:34:54 10° NNW
STARLINK-1225 3.8 19:26:16 10° WNW 19:30:25 70° N 19:34:27 11° E
Cosmos 1437 3.4 19:27:37 10° NNW 19:30:35 52° W 19:33:32 10° S
STARLINK-1230 3.8 19:31:15 10° WNW 19:35:24 71° N 19:39:14 12° E
Cosmos 2251 Rocket 4.1 19:31:50 10° SW 19:37:11 64° WNW 19:42:33 10° NNE
Cosmos 1908 3.3 19:34:03 10° S 19:37:49 55° E 19:41:39 10° NNE
SL-08 RB Rocket 3.7 19:33:32 10° SSE 19:38:07 83° ENE 19:42:46 10° NNW
STARLINK-1243 3.8 19:36:13 10° WNW 19:40:23 73° N 19:44:00 13° E
Resurs 1-3 3.7 19:37:52 10° SSE 19:42:10 58° ENE 19:46:30 10° N
USA 234 4.3 19:37:28 10° ENE 19:42:10 21° SE 19:46:51 10° S
SeaSat 1 3.2 19:38:44 10° NNE 19:43:36 59° NW 19:48:26 10° SW
ATLAS 2AS CENTAUR R/B 3.1 19:36:25 10° NW 19:44:05 73° SW 19:51:05 10° SSE
STARLINK-1228 2.9 19:42:15 10° WNW 19:45:10 64° SSW 19:47:06 19° SE
STARLINK-1236 3.7 19:41:12 10° WNW 19:45:21 74° N 19:48:47 15° E
Cosmos 1943 3.3 19:42:02 10° SSW 19:47:43 82° WNW 19:53:28 10° NNE
Ariane Rocket 4.1 19:43:31 10° S 19:48:23 47° W 19:53:17 10° NNW
CZ-4C R/B 3.9 19:43:34 10° NW 19:49:18 33° NNE 19:55:58 10° ENE
Cosmos 1953 3.6 19:45:36 10° SSW 19:49:24 44° WNW 19:53:16 10° N
Cosmos 1140 Rocket 3.8 19:47:39 10° S 19:52:33 44° ESE 19:57:27 10° NE
Cosmos 1726 3.1 19:49:18 10° SSW 19:52:57 51° WNW 19:56:37 10° N
Cosmos 2341 Rocket 4.2 19:47:26 10° N 19:53:44 57° ENE 19:59:56 10° SSE
STARLINK-1269 3.7 19:51:10 10° WNW 19:55:20 78° NNE 19:58:20 18° E
Meteor 1-11 4.3 19:51:49 10° NNW 19:57:38 85° W 20:03:19 10° S
Cosmos 1190 Rocket 4.1 19:53:46 10° S 19:58:57 57° ESE 20:04:08 10° NNE
Cosmos 2058 Rocket 3.1 19:55:18 10° S 19:59:45 63° E 20:04:14 10° NNE
DMSP B5D2-2 4.1 19:54:42 10° NNE 19:59:51 56° E 20:04:59 10° S
Cosmos 1697 Rocket 4.2 19:55:43 10° NNW 20:00:14 24° NE 20:04:03 13° E
STARLINK-1200 3.6 19:56:08 10° WNW 20:00:19 80° NNE 20:03:07 20° E
Spot 2 Rocket 4.1 19:56:54 17° SE 20:00:20 39° ENE 20:05:04 10° N
COSMOS 2455 2.9 19:54:15 10° NW 20:00:20 84° NE 20:05:11 17° SE
CZ-2C R/B 2.8 19:55:28 10° NNE 20:00:30 48° E 20:05:31 10° S
MetOp-A 4.2 19:56:53 10° SSE 20:02:15 84° WSW 20:07:39 10° NNW
Cosmos 614 Rocket 3.9 19:59:39 10° SSW 20:04:53 84° ESE 20:10:07 10° NNE
STARLINK-1192 3.6 20:01:08 10° WNW 20:05:18 82° NNE 20:07:55 22° ESE
Cosmos 1726 Rocket 3.8 20:03:17 10° SSW 20:07:41 75° W 20:12:11 10° N
Cosmos 2218 Rocket 4.4 20:02:05 10° N 20:08:03 46° ENE 20:12:17 19° SE
ARGOS 4.2 20:03:37 10° S 20:08:47 45° W 20:13:57 10° NNW
STARLINK-1244 3.6 20:06:06 10° WNW 20:10:17 85° NNE 20:12:41 24° ESE
ERBS 2.7 20:07:26 10° NW 20:10:46 56° NNE 20:12:22 27° E
USA 186 4.2 20:08:23 10° SSW 20:11:03 23° W 20:13:39 10° NW
SL-24 R/B 3.8 20:07:31 10° NNE 20:11:44 87° WNW 20:15:30 10° SSW
Resurs 01 Rocket 1.5 20:08:30 15° SSE 20:12:08 80° ENE 20:16:35 10° NNW
ATLAS CENTAUR R/B 3.2 20:11:28 10° NNW 20:14:27 20° NNE 20:16:45 13° ENE
BREEZE-M DEB (TANK) 1.6 20:10:44 10° WSW 20:14:36 55° S 20:15:10 41° ESE
STARLINK-1138 3.6 20:11:05 10° WNW 20:15:15 87° NNE 20:17:28 27° ESE
Cosmos 921 Rocket 3.1 20:14:29 10° NNW 20:18:39 69° WSW 20:21:45 17° S
STARLINK-1234 3.6 20:16:01 10° W 20:18:56 41° SSW 20:19:47 32° SSE
STARLINK-1233 3.2 20:15:56 10° WNW 20:19:01 52° SSW 20:19:56 37° SSE
STARLINK-1212 3.2 20:16:24 10° WNW 20:19:29 52° SSW 20:20:21 37° SSE
STARLINK-1105 3.3 20:16:51 10° WNW 20:19:56 52° SSW 20:20:48 37° SSE
STARLINK-1209 3.7 20:17:10 10° W 20:20:03 39° SSW 20:20:51 31° S
STARLINK-1143 3.5 20:16:03 10° WNW 20:20:14 90° SE 20:22:14 30° ESE
STARLINK-1206 3.2 20:17:20 10° WNW 20:20:23 51° SSW 20:21:13 37° SSE
STARLINK-1247 3.3 20:17:47 10° WNW 20:20:50 51° SSW 20:21:39 38° SSE
STARLINK-1227 3.3 20:18:11 10° WNW 20:21:16 51° SSW 20:22:06 38° SSE
Cosmos 962 Rocket 4.4 20:15:04 10° N 20:21:16 90° W 20:27:13 11° S
STARLINK-1218 3.3 20:18:41 10° WNW 20:21:44 50° SSW 20:22:31 38° SSE
Nadezhda 1 Rocket 4.3 20:15:36 10° SSW 20:21:59 72° WNW 20:28:21 10° N
STARLINK-1226 3.3 20:19:08 10° WNW 20:22:11 50° SSW 20:22:58 38° SSE
STARLINK-1254 3.3 20:19:33 10° WNW 20:22:37 50° SSW 20:23:24 38° SSE
STARLINK-1215 3.3 20:20:03 10° WNW 20:23:05 49° SSW 20:23:49 39° SSE
STARLINK-1231 3.3 20:20:29 10° WNW 20:23:32 49° SSW 20:24:15 39° SSE
STARLINK-1232 3.3 20:21:25 10° WNW 20:24:26 48° SSW 20:25:08 39° SSE
SL-8 Rocket 4.0 20:18:14 10° N 20:24:33 69° ENE 20:29:12 19° SSE
STARLINK-1217 3.3 20:21:51 10° WNW 20:24:53 48° SSW 20:25:33 39° SSE
STARLINK-1241 3.5 20:21:05 10° WNW 20:25:15 87° SSW 20:27:04 33° ESE
STARLINK-1208 3.4 20:22:15 10° WNW 20:25:18 48° SSW 20:26:00 39° SSE
BREEZE-M DEB (TANK) 4.4 20:20:41 10° W 20:25:24 30° SW 20:26:31 23° S
STARLINK-1229 3.4 20:22:45 10° WNW 20:25:46 47° SSW 20:26:25 39° SSE
STARLINK-1271 3.4 20:23:11 10° WNW 20:26:14 47° SSW 20:26:52 39° S
Cosmos 2228 4.3 20:22:12 10° SW 20:26:18 42° WNW 20:30:29 10° N
Cosmos 2181 Rocket 4.1 20:20:34 11° SSE 20:26:26 55° E 20:32:27 10° NNE
Cosmos 407 Rocket 3.6 20:21:25 10° SSW 20:26:34 79° WNW 20:31:43 10° NNE
STARLINK-1270 3.4 20:23:39 10° WNW 20:26:40 47° SSW 20:27:17 40° S
STARLINK-1154 3.4 20:24:06 10° WNW 20:27:07 46° SSW 20:27:43 40° S
SL-24 R/B - RUBIN 2 4.3 20:21:36 10° SW 20:27:19 80° SE 20:33:45 10° NE
Cosmos 676 Rocket 4.0 20:22:31 10° S 20:27:42 60° ESE 20:32:53 10° NNE
STARLINK-1197 3.4 20:25:01 10° WNW 20:28:02 46° SSW 20:28:35 40° S
Cosmos 1656 4.2 20:22:38 10° NNW 20:28:09 46° NE 20:30:57 26° ESE
STARLINK-1189 3.4 20:25:28 10° WNW 20:28:29 45° SSW 20:29:01 40° S
STARLINK-1198 3.4 20:25:55 10° WNW 20:28:55 45° SSW 20:29:27 40° S
Cosmos 1461 4.1 20:24:41 10° NW 20:28:55 40° WSW 20:32:00 18° S
Cosmos 1455 4.2 20:30:11 15° ENE 20:30:11 15° ENE 20:31:31 10° NE
ERS-1 Rocket 3.7 20:27:20 26° ESE 20:29:19 36° ENE 20:33:53 10° N
STARLINK-1188 3.4 20:26:21 10° WNW 20:29:22 45° SSW 20:29:53 40° S
Cosmos 1980 Rocket 3.8 20:25:03 10° NNW 20:29:26 22° NE 20:32:34 15° ENE
STARLINK-1235 3.7 20:27:03 10° W 20:30:00 37° SSW 20:30:32 34° S
STARLINK-1239 3.5 20:26:01 10° WNW 20:30:11 84° SSW 20:31:48 36° ESE
STARLINK-1187 3.6 20:27:28 10° W 20:30:28 41° SSW 20:30:59 37° S
Cosmos 1812 Rocket 4.0 20:29:46 33° SE 20:30:55 40° E 20:34:59 10° NNE
SPOT 3 Rocket 4.5 20:25:55 10° S 20:30:56 47° W 20:35:58 10° NNW
Cosmos 1892 3.3 20:27:33 10° N 20:31:15 40° ENE 20:32:00 36° ESE
STARLINK-1199 3.4 20:28:18 10° WNW 20:31:19 44° SSW 20:31:48 40° S
STARLINK-1191 3.5 20:28:46 10° WNW 20:31:47 43° SSW 20:32:15 40° S
STARLINK-1210 3.5 20:29:12 10° WNW 20:32:13 43° SSW 20:32:40 40° S
STARLINK-29 4.0 20:29:14 10° SW 20:31:20 30° S 20:31:20 30° S
STARLINK-1221 3.5 20:29:40 10° WNW 20:32:41 43° SSW 20:33:07 40° S
STARLINK-1219 3.5 20:30:06 10° WNW 20:33:07 43° SSW 20:33:32 40° S
STARLINK-1222 3.5 20:30:34 10° WNW 20:33:34 42° SSW 20:33:58 40° S
STARLINK-1211 3.5 20:31:01 10° WNW 20:34:01 42° SSW 20:34:24 40° S
STARLINK-60 2.9 20:31:07 10° WSW 20:34:23 67° SSE 20:34:55 54° ESE
STARLINK-1214 3.5 20:31:28 10° WNW 20:34:29 42° SSW 20:34:50 40° S
STARLINK-1245 3.5 20:31:58 10° WNW 20:34:56 41° SSW 20:35:16 40° S
STARLINK-1240 3.5 20:31:01 10° WNW 20:35:11 80° SSW 20:36:36 40° ESE
SPOT 5 3.6 20:34:13 27° E 20:35:12 30° ENE 20:38:59 10° N
STARLINK-1238 3.5 20:32:23 10° WNW 20:35:22 41° SSW 20:35:43 40° S
STARLINK-1205 3.5 20:33:19 10° W 20:36:17 40° SSW 20:36:34 39° SSW
Cosmos 220 Rocket 3.9 20:32:12 10° NNW 20:36:32 78° ENE 20:38:14 36° SE
GRACE-FO 1 4.5 20:35:04 33° S 20:36:37 77° E 20:40:21 10° N
STARLINK-1204 3.5 20:33:46 10° W 20:36:44 40° SSW 20:36:59 39° SSW
GRACE-FO 2 4.5 20:35:27 33° S 20:37:01 78° E 20:40:44 10° N
Cosmos 2366 rocket 3.9 20:31:18 10° N 20:37:26 68° ENE 20:41:05 26° SSE
Aureole 1 Rocket 4.3 20:30:28 10° SSW 20:37:45 70° WNW 20:43:21 10° NNE
STARLINK-1216 3.5 20:36:00 10° WNW 20:40:10 77° SSW 20:41:24 44° SE
Cosmos 1825 3.7 20:38:09 10° NNE 20:41:04 23° ENE 20:41:04 23° ENE
ATLAS 5 CENTAUR R/B 1.5 20:39:10 10° SW 20:43:24 89° SE 20:48:17 10° NE
Abrixas rocket 3.5 20:40:57 10° W 20:43:05 25° SW 20:43:05 25° SW
Terra 2.9 20:42:27 27° E 20:43:34 30° ENE 20:47:42 10° N
Cosmos 1959 Rocket 4.4 20:37:33 10° N 20:43:55 77° ENE 20:47:43 26° SSE
STARLINK-1237 3.6 20:40:59 10° WNW 20:45:07 74° SSW 20:46:09 48° SE
Cosmos 2151 3.7 20:45:39 10° N 20:49:34 36° ENE 20:49:51 35° E
Cosmos 2058 2.8 20:45:33 10° N 20:49:41 79° E 20:50:47 47° SSE
STARLINK-1202 3.6 20:45:58 10° WNW 20:50:06 70° SSW 20:50:57 52° SE
Cosmos 192 4.3 20:45:13 10° NNW 20:50:13 89° E 20:52:09 38° SSE
Cosmos 1954 Rocket 3.9 20:45:30 10° SSW 20:50:45 86° ESE 20:56:00 10° NNE
RESURS DK-1 3.0 20:48:35 10° NNW 20:52:35 42° NE 20:53:17 39° E
SPOT 1/Viking Rocket 3.5 20:52:37 37° SE 20:54:40 71° ENE 20:59:54 10° NNW
FALCON 9 DEB 4.4 20:51:37 10° SW 20:53:39 30° SSW 20:53:39 30° SSW
Cosmos 1300 3.1 20:52:16 17° SSW 20:55:02 61° WNW 20:58:51 10° N
Cosmos 1741 Rocket 4.4 20:54:59 40° SE 20:55:40 42° ESE 21:00:41 10° NE
Cosmos 1076 Rocket 3.4 20:53:26 10° NNW 20:57:44 85° W 20:59:02 45° S
SL-4 R/B 1.4 20:54:49 10° W 20:58:14 89° S 20:58:17 87° E
STARLINK-1201 4.3 20:55:23 10° W 20:58:00 31° SW 20:58:00 31° SW
In-Cosmos 22 Rocket 4.3 20:53:19 10° NNW 20:59:11 80° W 21:02:23 28° S
Cosmos 2208 Rocket 4.4 20:54:22 10° NNW 20:59:25 48° ENE 21:00:47 39° E
STARLINK-1246 3.6 20:55:57 10° WNW 21:00:03 63° SSW 21:00:32 58° S
MOS 1 Rocket 4.3 20:55:07 10° N 21:00:21 55° WNW 21:05:39 10° SW
STARLINK-1203 3.7 20:56:48 10° WNW 21:00:56 60° SSW 21:01:25 55° S
Cosmos 2082 Rocket 4.3 21:03:59 11° ENE 21:03:59 11° ENE 21:04:31 10° ENE
STARLINK-1224 3.7 21:00:55 10° WNW 21:05:00 60° SSW 21:05:18 58° S
Cosmos 1763 Rocket 3.4 21:03:49 10° NNW 21:09:04 89° ENE 21:10:29 49° SSE
SAR-Lupe-2 4.1 21:06:22 10° N 21:09:55 58° WNW 21:11:07 36° SW
STARLINK-1225 3.8 21:05:55 10° WNW 21:09:59 57° SSW 21:10:06 56° SSW
Cosmos 1833 Rocket 4.0 21:13:43 23° ENE 21:13:43 23° ENE 21:16:42 10° NE
Cosmos 489 Rocket 4.4 21:06:22 10° NNW 21:12:36 74° ENE 21:14:41 44° SE
STARLINK-1230 3.9 21:10:55 10° WNW 21:14:53 53° SW 21:14:53 53° SW
BREEZE M DEB (TANK) 3.6 21:12:52 10° SW 21:16:52 57° SSE 21:29:43 10° ENE
Cosmos 1814 Rocket 4.2 21:13:06 10° NNW 21:18:26 58° ENE 21:19:27 49° ESE
Cosmos 540 Rocket 3.6 21:13:21 10° NNW 21:18:29 58° ENE 21:19:20 51° E
Cosmos 1821 Rocket 4.1 21:12:28 10° N 21:18:48 60° ENE 21:20:35 45° SE
Cosmos 1174 4.5 21:15:30 10° NW 21:19:30 55° SW 21:20:14 49° SSW
STARLINK-1243 4.0 21:15:53 10° WNW 21:19:39 49° SW 21:19:39 49° SW
Cosmos-2242 3.4 21:21:21 49° ENE 21:21:21 49° ENE 21:25:01 10° NNE
COSMOS 2406 3.3 21:20:59 50° ESE 21:21:10 50° ESE 21:26:41 10° NE
SL-08 R/B 4.4 21:16:31 10° N 21:22:41 85° W 21:25:05 40° S
Cosmos 1934 Rocket 4.5 21:17:32 10° N 21:23:29 42° ENE 21:24:38 39° E
Meteor 2-10 Rocket 3.6 21:23:20 55° ESE 21:23:45 57° E 21:29:04 10° NNE
Iridium 4 Rocket 3.4 21:19:39 10° N 21:23:49 57° W 21:24:45 45° SW
STARLINK-1236 4.2 21:20:52 10° WNW 21:24:26 45° SW 21:24:26 45° SW
USA 234 3.2 21:19:36 10° ENE 21:26:06 62° SE 21:32:34 10° SW
USA 32 3.9 21:24:55 10° N 21:30:11 89° W 21:31:15 59° S
Cosmos 1408 3.2 21:33:35 10° NNW 21:36:38 54° NW 21:36:38 54° NW
CZ-4C R/B 3.0 21:32:14 10° NW 21:39:03 66° NE 21:41:59 40° ESE
Cosmos 2369 3.6 21:33:33 10° NNW 21:39:15 80° ENE 21:40:06 64° SE
CZ-2C R/B 4.4 21:36:09 10° N 21:40:37 30° WNW 21:45:04 10° WSW
Cosmos 1850 Rocket 3.9 21:39:35 53° SSW 21:40:51 87° WNW 21:46:04 10° NNE
CARTOSAT-1 3.8 21:43:22 62° WSW 21:43:27 62° WSW 21:47:46 10° NNW
ASTEX 1 3.7 21:44:36 54° ENE 21:44:36 54° ENE 21:49:15 10° N
Cosmos 1697 Rocket 2.5 21:39:19 10° NNW 21:45:02 88° ENE 21:45:47 69° SE
Cosmos 1356 Rocket 3.6 21:46:43 70° NNW 21:46:43 70° NNW 21:50:33 10° N
Cosmos 841 Rocket 3.4 21:41:05 10° NNW 21:46:24 81° WSW 21:46:53 73° S
Resurs 01 Rocket 4.3 21:46:55 10° WSW 21:49:13 14° W 21:51:31 10° NW
Mayak 0.4 21:45:51 10° NNE 21:47:47 24° NE 21:47:47 24° NE
Okean 3 Rocket 3.8 21:45:46 10° NNW 21:50:04 66° W 21:50:04 66° W
ATLAS CENTAUR R/B 2.1 21:50:04 10° NW 21:52:56 46° NNW 21:52:56 46° NNW
Cosmos 1766 Rocket 3.8 21:50:47 10° NNW 21:54:58 68° WNW 21:54:58 68° WNW
Cosmos 1570 Rocket 4.4 21:56:41 10° NNW 22:01:53 52° WSW 22:02:21 51° SW
SL-16 R/B 3.4 21:57:59 10° NNW 22:03:01 31° NE 22:04:14 28° ENE
Cosmos 1455 3.4 22:05:04 40° NW 22:05:04 40° NW 22:08:01 10° N
Cosmos 2360 Rocket 4.2 22:02:00 10° NNW 22:06:05 20° NE 22:08:30 16° ENE
ERS-1 Rocket 3.9 22:07:19 36° WSW 22:08:06 38° W 22:12:47 10° NNW
Meteor 2-3 Rocket 3.6 22:05:00 10° NNW 22:10:47 89° ENE 22:11:01 83° SSE
Cosmos 2322 Rocket 3.5 22:06:28 10° NNW 22:11:26 30° NE 22:12:34 28° ENE
SPOT 5 3.8 22:13:27 35° W 22:13:27 35° W 22:17:15 10° NNW
Cosmos 1980 Rocket 2.1 22:08:38 10° NNW 22:14:18 83° ENE 22:14:19 83° ENE
Cosmos 1825 3.9 22:13:21 10° NNW 22:15:53 30° WNW 22:15:53 30° WNW
Terra 2.6 22:21:20 43° W 22:21:20 43° W 22:25:44 10° NNW
ATLAS 5 CENTAUR R/B 3.7 22:24:46 10° W 22:28:42 28° NNW 22:33:08 10° NE
RESURS DK-1 4.4 22:26:58 10° NW 22:29:11 22° W 22:29:11 22° W
Thor Agena Rocket 3.9 22:35:34 10° NNE 22:39:38 58° NNE 22:39:38 58° NNE
Cosmos 2278 4.1 22:35:49 10° NW 22:40:53 53° W 22:40:53 53° W
Cosmos 2082 Rocket 2.5 22:45:47 58° NE 22:45:47 58° NE 22:50:19 10° NNE
Cosmos 2344 4.3 22:45:33 10° NW 22:54:55 78° SW 22:58:33 51° SSE
Cosmos 1833 Rocket 3.0 22:55:21 61° WNW 22:55:34 62° NW 23:01:12 10° NNE
Cosmos 2221 4.0 22:58:41 36° N 22:58:41 36° N 23:01:21 10° N
Cosmos 1727 Rocket 4.1 22:58:39 64° ENE 22:58:39 64° ENE 23:04:25 10° NNE
Cosmos 1153 Rocket 4.4 22:53:47 10° N 23:00:00 85° NE 23:00:00 85° NE
Meteor 1-27 4.5 23:03:27 65° WNW 23:03:27 65° WNW 23:09:09 10° N
Cosmos 2219 Rocket 4.3 23:00:28 10° NNW 23:04:34 20° NE 23:07:20 15° ENE
COSMOS 2406 4.5 23:02:57 24° W 23:05:41 37° NW 23:11:00 10° NNE
Cosmos 1802 Rocket 4.4 23:02:08 10° N 23:07:59 52° ENE 23:07:59 52° ENE
USA 234 3.5 23:02:43 10° ENE 23:09:12 67° NNW 23:15:41 10° W
Cosmos 2100 Rocket 4.1 23:07:04 10° N 23:12:57 70° NE 23:12:57 70° NE
Cosmos 2173 Rocket 4.0 23:16:12 10° N 23:21:50 71° NE 23:21:50 71° NE
Mayak 0.8 23:21:45 10° N 23:24:21 24° NW 23:24:21 24° NW
CZ-4C R/B 3.4 23:20:53 10° NW 23:27:10 44° WSW 23:27:10 44° WSW
ALOS 2 4.2 23:32:40 32° NNW 23:32:40 32° NNW 23:35:06 10° NNW
Cosmos 968 Rocket 4.2 23:46:26 50° N 23:46:26 50° N 23:50:33 10° NNE
MOS 1-B Rocket 4.2 23:40:43 10° NNE 23:46:30 70° ENE 23:46:30 70° ENE
SL-16 R/B 2.9 23:41:56 10° NW 23:46:05 47° WNW 23:46:05 47° WNW
Cosmos 2360 Rocket 2.6 23:45:30 10° NNW 23:50:15 59° N 23:50:15 59° N
